This demonstration page uses our WeatherBlox Daily Observations layout. Learn more.

Left ArrowRight Arrow

31.31129, -92.44514

Hourly Observations for August 22, 2022

Temp ( °F °C ) Dew Point ( °F °C ) Humidity (%) Winds ( mph kmh ) Pressure ( in mb ) Visibility ( mi km ) Precip ( " mm )
12:53 am 00:53 Clear 77 25 74 23.3 90 90 SSE 8 13 29.99 1016 10 16 0.00 0.00
1:53 am 01:53 Clear 77 25 74 23.3 90 90 SSE 5 7 29.98 1015 9 14 0.00 0.00
2:53 am 02:53 Clear 77 25 74 23.3 90 90 SSE 5 7 29.98 1015 10 16 0.00 0.00
3:53 am 03:53 Clear 76 24.4 73 22.8 91 91 SE 6 9 29.97 1015 10 16 0.00 0.00
4:53 am 04:53 Clear 76 24.4 73 22.8 91 91 SSE 7 11 29.96 1015 9 14 0.00 0.00
5:53 am 05:53 Mostly Clear 76 24.4 73 22.8 91 91 SSE 6 9 29.96 1015 8 13 0.00 0.00
6:53 am 06:53 Sunny 76 24.4 73 22.8 91 91 SE 5 7 29.97 1015 7 11 0.00 0.00
7:53 am 07:53 Mostly Sunny 78 25.6 74 23.3 87 87 SE 7 11 29.98 1015 8 13 0.00 0.00
8:53 am 08:53 Mostly Sunny 80 26.7 76 24.4 87 87 SSE 6 9 29.98 1015 9 14 0.00 0.00
9:53 am 09:53 Sunny 82 27.8 77 25 85 85 SE 5 7 29.97 1015 10 16 0.00 0.00
10:53 am 10:53 Partly Cloudy 85 29.4 77 25 77 77 SSE 7 11 29.97 1015 10 16 0.00 0.00
11:06 am 11:06 Mostly Cloudy 85 29.4 77 25 77 77 VRB 7 11 29.95 1014 10 16 0.00 0.00
11:42 am 11:42 Partly Cloudy 87 30.6 76 24.4 70 70 VRB 3 6 29.94 1014 10 16 0.00 0.00
11:53 am 11:53 Mostly Cloudy 85 29.4 76 24.4 75 75 SW 3 6 29.96 1014 10 16 0.00 0.00
12:03 pm 12:03 Mostly Cloudy 86 30 76 24.4 72 72 Calm 29.95 1014 10 16 0.00 0.00
12:14 pm 12:14 Mostly Cloudy 87 30.6 76 24.4 70 70 S 3 6 29.94 1014 10 16 0.00 0.00
12:42 pm 12:42 Mostly Cloudy 88 31.1 75 23.9 66 66 VRB 3 6 29.94 1014 10 16 0.00 0.00
12:53 pm 12:53 Mostly Cloudy 88 31.1 75 23.9 66 66 SSW 3 6 29.94 1014 10 16 0.00 0.00
1:29 pm 13:29 Cloudy with Nearby Thunderstorms 86 30 75 23.9 70 70 SSE 14 22 29.92 1013 10 16 0.00 0.00
1:37 pm 13:37 Cloudy with Thunderstorms 86 30 75 23.9 70 70 S 12 19 29.94 1014 10 16 0.00 0.00
1:46 pm 13:46 Cloudy with Strong Thunderstorms 77 25 72 22.2 84 84 WSW 16 26 29.96 1014 1 1 0.18 4.57
1:53 pm 13:53 Cloudy with Nearby Thunderstorms 75 23.9 72 22.2 90 90 WSW 8 13 29.96 1015 1 1 0.27 6.86
2:02 pm 14:02 Cloudy with Strong Thunderstorms 75 23.9 72 22.2 90 90 W 6 9 29.95 1014 2 3 0.03 0.76
2:11 pm 14:11 Mostly Cloudy with Nearby Thunderstorms 75 23.9 72 22.2 90 90 Calm 29.94 1014 5 8 0.04 1.02
2:29 pm 14:29 Partly Cloudy with Rain 76 24.4 72 22.2 88 88 VRB 3 6 29.94 1014 5 8 0.06 1.52
2:53 pm 14:53 Mostly Cloudy with Light Rain 77 25 73 22.8 88 88 ENE 5 7 29.95 1014 10 16 0.08 2.03
3:46 pm 15:46 Mostly Cloudy with Nearby Thunderstorms 77 25 73 22.8 88 88 Calm 29.92 1013 10 16 0.01 0.13
3:53 pm 15:53 Mostly Cloudy with Nearby Thunderstorms 77 25 73 22.8 88 88 WNW 8 13 29.94 1014 10 16 0.01 0.13
3:59 pm 15:59 Mostly Cloudy with Nearby Thunderstorms 77 25 73 22.8 88 88 NW 9 15 29.94 1014 2 3 0.05 1.27
4:02 pm 16:02 Mostly Cloudy with Heavy Rain 77 25 73 22.8 88 88 NW 5 7 29.93 1013 1 1 0.15 3.81
4:14 pm 16:14 Mostly Cloudy with Light Rain 76 24.4 74 23.3 94 94 NNE 3 6 29.93 1013 5 8 0.18 4.57
4:53 pm 16:53 Mostly Cloudy with Light Rain 76 24.4 73 22.8 91 91 NNE 5 7 29.93 1014 7 11 0.21 5.33
5:53 pm 17:53 Mostly Cloudy with Light Rain 76 24.4 73 22.8 91 91 E 6 9 29.90 1013 10 16 0.04 1.02
6:53 pm 18:53 Mostly Sunny 77 25 73 22.8 88 88 E 6 9 29.90 1013 10 16 0.01 0.13
8:00 pm 20:00 Mostly Cloudy 76 24.4 73 22.8 91 91 E 6 9 29.90 1012 10 16 0.00 0.00
8:20 pm 20:20 Cloudy 76 24.4 73 22.8 91 91 ESE 9 15 29.90 1012 10 16 0.00 0.00
8:53 pm 20:53 Cloudy 76 24.4 73 22.8 91 91 E 9 15 29.92 1013 10 16 0.00 0.00
9:39 pm 21:39 Cloudy 76 24.4 73 22.8 91 91 ESE 10 17 29.91 1013 10 16 0.00 0.00
9:53 pm 21:53 Cloudy 76 24.4 73 22.8 91 91 ESE 10 17 29.91 1013 10 16 0.00 0.00
10:24 pm 22:24 Mostly Cloudy 76 24.4 73 22.8 91 91 E 9 15 29.90 1012 10 16 0.00 0.00
10:53 pm 22:53 Cloudy 77 25 73 22.8 88 88 E 8 13 29.92 1013 10 16 0.00 0.00
11:53 pm 23:53 Cloudy 77 25 74 23.3 90 90 SE 12 19 29.91 1013 10 16 0.00 0.00

Powered by AerisWeather